locationName,lineName,date,time,countIn,countOut
�n����ʂ�,3_1_2,2022/5/1,0:00,0,1
�n����ʂ�,3_1_2,2022/5/1,1:00,0,1
�n����ʂ�,3_1_2,2022/5/1,2:00,1,1
�n����ʂ�,3_1_2,2022/5/1,3:00,3,0
�n����ʂ�,3_1_2,2022/5/1,4:00,0,2
�n����ʂ�,3_1_2,2022/5/1,5:00,5,4
�n����ʂ�,3_1_2,2022/5/1,6:00,6,9
�n����ʂ�,3_1_2,2022/5/1,7:00,37,32
�n����ʂ�,3_1_2,2022/5/1,8:00,31,44
�n����ʂ�,3_1_2,2022/5/1,9:00,46,59
�n����ʂ�,3_1_2,2022/5/1,10:00,100,111
�n����ʂ�,3_1_2,2022/5/1,11:00,149,177
�n����ʂ�,3_1_2,2022/5/1,12:00,191,213
�n����ʂ�,3_1_2,2022/5/1,13:00,170,214
�n����ʂ�,3_1_2,2022/5/1,14:00,216,244
�n����ʂ�,3_1_2,2022/5/1,15:00,169,236
�n����ʂ�,3_1_2,2022/5/1,16:00,106,191
�n����ʂ�,3_1_2,2022/5/1,17:00,116,170
�n����ʂ�,3_1_2,2022/5/1,18:00,78,110
�n����ʂ�,3_1_2,2022/5/1,19:00,27,31
�n����ʂ�,3_1_2,2022/5/1,20:00,8,0
�n����ʂ�,3_1_2,2022/5/1,21:00,3,1
�n����ʂ�,3_1_2,2022/5/1,22:00,1,1
�n����ʂ�,3_1_2,2022/5/1,23:00,1,0
�n����ʂ�,3_1_2,2022/5/2,0:00,2,0
�n����ʂ�,3_1_2,2022/5/2,1:00,0,0
�n����ʂ�,3_1_2,2022/5/2,2:00,0,0
�n����ʂ�,3_1_2,2022/5/2,3:00,0,0
�n����ʂ�,3_1_2,2022/5/2,4:00,1,3
�n����ʂ�,3_1_2,2022/5/2,5:00,8,6
�n����ʂ�,3_1_2,2022/5/2,6:00,17,20
�n����ʂ�,3_1_2,2022/5/2,7:00,70,48
�n����ʂ�,3_1_2,2022/5/2,8:00,68,66
�n����ʂ�,3_1_2,2022/5/2,9:00,61,72
�n����ʂ�,3_1_2,2022/5/2,10:00,109,158
�n����ʂ�,3_1_2,2022/5/2,11:00,165,174
�n����ʂ�,3_1_2,2022/5/2,12:00,175,199
�n����ʂ�,3_1_2,2022/5/2,13:00,161,171
�n����ʂ�,3_1_2,2022/5/2,14:00,181,227
�n����ʂ�,3_1_2,2022/5/2,15:00,138,208
�n����ʂ�,3_1_2,2022/5/2,16:00,126,194
�n����ʂ�,3_1_2,2022/5/2,17:00,141,150
�n����ʂ�,3_1_2,2022/5/2,18:00,105,163
�n����ʂ�,3_1_2,2022/5/2,19:00,41,48
�n����ʂ�,3_1_2,2022/5/2,20:00,11,5
�n����ʂ�,3_1_2,2022/5/2,21:00,4,5
�n����ʂ�,3_1_2,2022/5/2,22:00,2,1
�n����ʂ�,3_1_2,2022/5/2,23:00,1,0
�n����ʂ�,3_1_2,2022/5/3,0:00,1,0
�n����ʂ�,3_1_2,2022/5/3,1:00,1,0
�n����ʂ�,3_1_2,2022/5/3,2:00,0,0
�n����ʂ�,3_1_2,2022/5/3,3:00,0,0
�n����ʂ�,3_1_2,2022/5/3,4:00,0,0
�n����ʂ�,3_1_2,2022/5/3,5:00,8,2
�n����ʂ�,3_1_2,2022/5/3,6:00,14,21
�n����ʂ�,3_1_2,2022/5/3,7:00,16,37
�n����ʂ�,3_1_2,2022/5/3,8:00,29,42
�n����ʂ�,3_1_2,2022/5/3,9:00,58,59
�n����ʂ�,3_1_2,2022/5/3,10:00,99,113
�n����ʂ�,3_1_2,2022/5/3,11:00,152,209
�n����ʂ�,3_1_2,2022/5/3,12:00,202,187
�n����ʂ�,3_1_2,2022/5/3,13:00,160,207
�n����ʂ�,3_1_2,2022/5/3,14:00,159,191
�n����ʂ�,3_1_2,2022/5/3,15:00,179,212
�n����ʂ�,3_1_2,2022/5/3,16:00,174,203
�n����ʂ�,3_1_2,2022/5/3,17:00,180,249
�n����ʂ�,3_1_2,2022/5/3,18:00,158,205
�n����ʂ�,3_1_2,2022/5/3,19:00,59,75
�n����ʂ�,3_1_2,2022/5/3,20:00,13,8
�n����ʂ�,3_1_2,2022/5/3,21:00,5,4
�n����ʂ�,3_1_2,2022/5/3,22:00,1,4
�n����ʂ�,3_1_2,2022/5/3,23:00,2,1
�n����ʂ�,3_1_2,2022/5/4,0:00,3,1
�n����ʂ�,3_1_2,2022/5/4,1:00,0,2
�n����ʂ�,3_1_2,2022/5/4,2:00,1,0
�n����ʂ�,3_1_2,2022/5/4,3:00,1,0
�n����ʂ�,3_1_2,2022/5/4,4:00,0,2
�n����ʂ�,3_1_2,2022/5/4,5:00,7,7
�n����ʂ�,3_1_2,2022/5/4,6:00,10,22
�n����ʂ�,3_1_2,2022/5/4,7:00,13,41
�n����ʂ�,3_1_2,2022/5/4,8:00,21,45
�n����ʂ�,3_1_2,2022/5/4,9:00,73,61
�n����ʂ�,3_1_2,2022/5/4,10:00,123,138
�n����ʂ�,3_1_2,2022/5/4,11:00,170,238
�n����ʂ�,3_1_2,2022/5/4,12:00,204,196
�n����ʂ�,3_1_2,2022/5/4,13:00,149,214
�n����ʂ�,3_1_2,2022/5/4,14:00,143,231
�n����ʂ�,3_1_2,2022/5/4,15:00,161,204
�n����ʂ�,3_1_2,2022/5/4,16:00,183,217
�n����ʂ�,3_1_2,2022/5/4,17:00,203,245
�n����ʂ�,3_1_2,2022/5/4,18:00,145,189
�n����ʂ�,3_1_2,2022/5/4,19:00,54,61
�n����ʂ�,3_1_2,2022/5/4,20:00,29,33
�n����ʂ�,3_1_2,2022/5/4,21:00,3,4
�n����ʂ�,3_1_2,2022/5/4,22:00,1,2
�n����ʂ�,3_1_2,2022/5/4,23:00,4,0
�n����ʂ�,3_1_2,2022/5/5,0:00,1,1
�n����ʂ�,3_1_2,2022/5/5,1:00,1,0
�n����ʂ�,3_1_2,2022/5/5,2:00,0,1
�n����ʂ�,3_1_2,2022/5/5,3:00,1,0
�n����ʂ�,3_1_2,2022/5/5,4:00,0,2
�n����ʂ�,3_1_2,2022/5/5,5:00,4,5
�n����ʂ�,3_1_2,2022/5/5,6:00,10,14
�n����ʂ�,3_1_2,2022/5/5,7:00,16,34
�n����ʂ�,3_1_2,2022/5/5,8:00,21,34
�n����ʂ�,3_1_2,2022/5/5,9:00,50,55
�n����ʂ�,3_1_2,2022/5/5,10:00,120,182
�n����ʂ�,3_1_2,2022/5/5,11:00,173,157
�n����ʂ�,3_1_2,2022/5/5,12:00,182,215
�n����ʂ�,3_1_2,2022/5/5,13:00,151,213
�n����ʂ�,3_1_2,2022/5/5,14:00,149,199
�n����ʂ�,3_1_2,2022/5/5,15:00,195,221
�n����ʂ�,3_1_2,2022/5/5,16:00,121,205
�n����ʂ�,3_1_2,2022/5/5,17:00,114,149
�n����ʂ�,3_1_2,2022/5/5,18:00,84,72
�n����ʂ�,3_1_2,2022/5/5,19:00,49,40
�n����ʂ�,3_1_2,2022/5/5,20:00,20,18
�n����ʂ�,3_1_2,2022/5/5,21:00,9,3
�n����ʂ�,3_1_2,2022/5/5,22:00,0,1
�n����ʂ�,3_1_2,2022/5/5,23:00,2,2
�n����ʂ�,3_1_2,2022/5/6,0:00,1,0
�n����ʂ�,3_1_2,2022/5/6,1:00,0,1
�n����ʂ�,3_1_2,2022/5/6,2:00,2,0
�n����ʂ�,3_1_2,2022/5/6,3:00,0,0
�n����ʂ�,3_1_2,2022/5/6,4:00,2,1
�n����ʂ�,3_1_2,2022/5/6,5:00,10,8
�n����ʂ�,3_1_2,2022/5/6,6:00,12,13
�n����ʂ�,3_1_2,2022/5/6,7:00,72,61
�n����ʂ�,3_1_2,2022/5/6,8:00,70,59
�n����ʂ�,3_1_2,2022/5/6,9:00,42,58
�n����ʂ�,3_1_2,2022/5/6,10:00,85,114
�n����ʂ�,3_1_2,2022/5/6,11:00,100,119
�n����ʂ�,3_1_2,2022/5/6,12:00,194,217
�n����ʂ�,3_1_2,2022/5/6,13:00,141,175
�n����ʂ�,3_1_2,2022/5/6,14:00,93,137
�n����ʂ�,3_1_2,2022/5/6,15:00,79,152
�n����ʂ�,3_1_2,2022/5/6,16:00,102,176
�n����ʂ�,3_1_2,2022/5/6,17:00,116,154
�n����ʂ�,3_1_2,2022/5/6,18:00,92,98
�n����ʂ�,3_1_2,2022/5/6,19:00,36,40
�n����ʂ�,3_1_2,2022/5/6,20:00,8,7
�n����ʂ�,3_1_2,2022/5/6,21:00,7,3
�n����ʂ�,3_1_2,2022/5/6,22:00,2,2
�n����ʂ�,3_1_2,2022/5/6,23:00,2,3
�n����ʂ�,3_1_2,2022/5/7,0:00,2,0
�n����ʂ�,3_1_2,2022/5/7,1:00,2,2
�n����ʂ�,3_1_2,2022/5/7,2:00,1,0
�n����ʂ�,3_1_2,2022/5/7,3:00,0,0
�n����ʂ�,3_1_2,2022/5/7,4:00,2,1
�n����ʂ�,3_1_2,2022/5/7,5:00,6,5
�n����ʂ�,3_1_2,2022/5/7,6:00,11,12
�n����ʂ�,3_1_2,2022/5/7,7:00,29,35
�n����ʂ�,3_1_2,2022/5/7,8:00,55,46
�n����ʂ�,3_1_2,2022/5/7,9:00,26,43
�n����ʂ�,3_1_2,2022/5/7,10:00,86,102
�n����ʂ�,3_1_2,2022/5/7,11:00,98,117
�n����ʂ�,3_1_2,2022/5/7,12:00,118,155
�n����ʂ�,3_1_2,2022/5/7,13:00,91,132
�n����ʂ�,3_1_2,2022/5/7,14:00,79,117
�n����ʂ�,3_1_2,2022/5/7,15:00,80,93
�n����ʂ�,3_1_2,2022/5/7,16:00,100,138
�n����ʂ�,3_1_2,2022/5/7,17:00,70,110
�n����ʂ�,3_1_2,2022/5/7,18:00,74,91
�n����ʂ�,3_1_2,2022/5/7,19:00,33,32
�n����ʂ�,3_1_2,2022/5/7,20:00,6,9
�n����ʂ�,3_1_2,2022/5/7,21:00,5,6
�n����ʂ�,3_1_2,2022/5/7,22:00,1,4
�n����ʂ�,3_1_2,2022/5/7,23:00,5,0
�n����ʂ�,3_1_2,2022/5/8,0:00,5,0
�n����ʂ�,3_1_2,2022/5/8,1:00,4,0
�n����ʂ�,3_1_2,2022/5/8,2:00,2,1
�n����ʂ�,3_1_2,2022/5/8,3:00,0,0
�n����ʂ�,3_1_2,2022/5/8,4:00,1,2
�n����ʂ�,3_1_2,2022/5/8,5:00,4,8
�n����ʂ�,3_1_2,2022/5/8,6:00,9,11
�n����ʂ�,3_1_2,2022/5/8,7:00,7,24
�n����ʂ�,3_1_2,2022/5/8,8:00,20,14
�n����ʂ�,3_1_2,2022/5/8,9:00,28,50
�n����ʂ�,3_1_2,2022/5/8,10:00,62,64
�n����ʂ�,3_1_2,2022/5/8,11:00,82,112
�n����ʂ�,3_1_2,2022/5/8,12:00,97,110
�n����ʂ�,3_1_2,2022/5/8,13:00,108,127
�n����ʂ�,3_1_2,2022/5/8,14:00,111,116
�n����ʂ�,3_1_2,2022/5/8,15:00,56,91
�n����ʂ�,3_1_2,2022/5/8,16:00,45,67
�n����ʂ�,3_1_2,2022/5/8,17:00,50,90
�n����ʂ�,3_1_2,2022/5/8,18:00,44,52
�n����ʂ�,3_1_2,2022/5/8,19:00,11,12
�n����ʂ�,3_1_2,2022/5/8,20:00,3,4
�n����ʂ�,3_1_2,2022/5/8,21:00,2,3
�n����ʂ�,3_1_2,2022/5/8,22:00,0,1
�n����ʂ�,3_1_2,2022/5/8,23:00,0,0
�n����ʂ�,3_1_2,2022/5/9,0:00,1,0
�n����ʂ�,3_1_2,2022/5/9,1:00,0,0
�n����ʂ�,3_1_2,2022/5/9,2:00,0,0
�n����ʂ�,3_1_2,2022/5/9,3:00,0,1
�n����ʂ�,3_1_2,2022/5/9,4:00,1,1
�n����ʂ�,3_1_2,2022/5/9,5:00,6,5
�n����ʂ�,3_1_2,2022/5/9,6:00,17,13
�n����ʂ�,3_1_2,2022/5/9,7:00,47,32
�n����ʂ�,3_1_2,2022/5/9,8:00,20,65
�n����ʂ�,3_1_2,2022/5/9,9:00,43,87
�n����ʂ�,3_1_2,2022/5/9,10:00,38,54
�n����ʂ�,3_1_2,2022/5/9,11:00,72,86
�n����ʂ�,3_1_2,2022/5/9,12:00,74,95
�n����ʂ�,3_1_2,2022/5/9,13:00,54,76
�n����ʂ�,3_1_2,2022/5/9,14:00,43,76
�n����ʂ�,3_1_2,2022/5/9,15:00,64,77
�n����ʂ�,3_1_2,2022/5/9,16:00,55,91
�n����ʂ�,3_1_2,2022/5/9,17:00,73,81
�n����ʂ�,3_1_2,2022/5/9,18:00,71,58
�n����ʂ�,3_1_2,2022/5/9,19:00,24,23
�n����ʂ�,3_1_2,2022/5/9,20:00,7,3
�n����ʂ�,3_1_2,2022/5/9,21:00,2,2
�n����ʂ�,3_1_2,2022/5/9,22:00,2,0
�n����ʂ�,3_1_2,2022/5/9,23:00,1,2
�n����ʂ�,3_1_2,2022/5/10,0:00,0,1
�n����ʂ�,3_1_2,2022/5/10,1:00,0,0
�n����ʂ�,3_1_2,2022/5/10,2:00,1,0
�n����ʂ�,3_1_2,2022/5/10,3:00,1,1
�n����ʂ�,3_1_2,2022/5/10,4:00,1,1
�n����ʂ�,3_1_2,2022/5/10,5:00,9,10
�n����ʂ�,3_1_2,2022/5/10,6:00,13,16
�n����ʂ�,3_1_2,2022/5/10,7:00,71,50
�n����ʂ�,3_1_2,2022/5/10,8:00,53,72
�n����ʂ�,3_1_2,2022/5/10,9:00,35,50
�n����ʂ�,3_1_2,2022/5/10,10:00,44,49
�n����ʂ�,3_1_2,2022/5/10,11:00,77,83
�n����ʂ�,3_1_2,2022/5/10,12:00,73,90
�n����ʂ�,3_1_2,2022/5/10,13:00,53,83
�n����ʂ�,3_1_2,2022/5/10,14:00,51,51
�n����ʂ�,3_1_2,2022/5/10,15:00,56,47
�n����ʂ�,3_1_2,2022/5/10,16:00,58,105
�n����ʂ�,3_1_2,2022/5/10,17:00,103,120
�n����ʂ�,3_1_2,2022/5/10,18:00,64,55
�n����ʂ�,3_1_2,2022/5/10,19:00,22,15
�n����ʂ�,3_1_2,2022/5/10,20:00,2,4
�n����ʂ�,3_1_2,2022/5/10,21:00,1,0
�n����ʂ�,3_1_2,2022/5/10,22:00,4,5
�n����ʂ�,3_1_2,2022/5/10,23:00,1,1
�n����ʂ�,3_1_2,2022/5/11,0:00,2,0
�n����ʂ�,3_1_2,2022/5/11,1:00,0,0
�n����ʂ�,3_1_2,2022/5/11,2:00,0,1
�n����ʂ�,3_1_2,2022/5/11,3:00,0,0
�n����ʂ�,3_1_2,2022/5/11,4:00,1,3
�n����ʂ�,3_1_2,2022/5/11,5:00,5,3
�n����ʂ�,3_1_2,2022/5/11,6:00,5,11
�n����ʂ�,3_1_2,2022/5/11,7:00,54,42
�n����ʂ�,3_1_2,2022/5/11,8:00,38,53
�n����ʂ�,3_1_2,2022/5/11,9:00,28,52
�n����ʂ�,3_1_2,2022/5/11,10:00,47,70
�n����ʂ�,3_1_2,2022/5/11,11:00,50,57
�n����ʂ�,3_1_2,2022/5/11,12:00,53,75
�n����ʂ�,3_1_2,2022/5/11,13:00,55,65
�n����ʂ�,3_1_2,2022/5/11,14:00,49,76
�n����ʂ�,3_1_2,2022/5/11,15:00,37,66
�n����ʂ�,3_1_2,2022/5/11,16:00,40,73
�n����ʂ�,3_1_2,2022/5/11,17:00,105,91
�n����ʂ�,3_1_2,2022/5/11,18:00,44,63
�n����ʂ�,3_1_2,2022/5/11,19:00,26,15
�n����ʂ�,3_1_2,2022/5/11,20:00,9,8
�n����ʂ�,3_1_2,2022/5/11,21:00,14,24
�n����ʂ�,3_1_2,2022/5/11,22:00,2,3
�n����ʂ�,3_1_2,2022/5/11,23:00,0,0
�n����ʂ�,3_1_2,2022/5/12,0:00,3,2
�n����ʂ�,3_1_2,2022/5/12,1:00,0,1
�n����ʂ�,3_1_2,2022/5/12,2:00,1,0
�n����ʂ�,3_1_2,2022/5/12,3:00,0,1
�n����ʂ�,3_1_2,2022/5/12,4:00,2,1
�n����ʂ�,3_1_2,2022/5/12,5:00,4,6
�n����ʂ�,3_1_2,2022/5/12,6:00,5,9
�n����ʂ�,3_1_2,2022/5/12,7:00,52,32
�n����ʂ�,3_1_2,2022/5/12,8:00,40,55
�n����ʂ�,3_1_2,2022/5/12,9:00,18,44
�n����ʂ�,3_1_2,2022/5/12,10:00,26,82
�n����ʂ�,3_1_2,2022/5/12,11:00,55,84
�n����ʂ�,3_1_2,2022/5/12,12:00,69,91
�n����ʂ�,3_1_2,2022/5/12,13:00,29,41
�n����ʂ�,3_1_2,2022/5/12,14:00,21,70
�n����ʂ�,3_1_2,2022/5/12,15:00,29,36
�n����ʂ�,3_1_2,2022/5/12,16:00,30,40
�n����ʂ�,3_1_2,2022/5/12,17:00,64,51
�n����ʂ�,3_1_2,2022/5/12,18:00,54,45
�n����ʂ�,3_1_2,2022/5/12,19:00,25,19
�n����ʂ�,3_1_2,2022/5/12,20:00,6,2
�n����ʂ�,3_1_2,2022/5/12,21:00,2,3
�n����ʂ�,3_1_2,2022/5/12,22:00,0,3
�n����ʂ�,3_1_2,2022/5/12,23:00,0,0
�n����ʂ�,3_1_2,2022/5/13,0:00,0,0
�n����ʂ�,3_1_2,2022/5/13,1:00,2,0
�n����ʂ�,3_1_2,2022/5/13,2:00,0,1
�n����ʂ�,3_1_2,2022/5/13,3:00,0,1
�n����ʂ�,3_1_2,2022/5/13,4:00,1,2
�n����ʂ�,3_1_2,2022/5/13,5:00,8,10
�n����ʂ�,3_1_2,2022/5/13,6:00,12,9
�n����ʂ�,3_1_2,2022/5/13,7:00,47,32
�n����ʂ�,3_1_2,2022/5/13,8:00,42,49
�n����ʂ�,3_1_2,2022/5/13,9:00,26,49
�n����ʂ�,3_1_2,2022/5/13,10:00,23,47
�n����ʂ�,3_1_2,2022/5/13,11:00,42,79
�n����ʂ�,3_1_2,2022/5/13,12:00,42,56
�n����ʂ�,3_1_2,2022/5/13,13:00,36,61
�n����ʂ�,3_1_2,2022/5/13,14:00,30,38
�n����ʂ�,3_1_2,2022/5/13,15:00,15,34
�n����ʂ�,3_1_2,2022/5/13,16:00,17,46
�n����ʂ�,3_1_2,2022/5/13,17:00,63,63
�n����ʂ�,3_1_2,2022/5/13,18:00,55,32
�n����ʂ�,3_1_2,2022/5/13,19:00,17,14
�n����ʂ�,3_1_2,2022/5/13,20:00,0,2
�n����ʂ�,3_1_2,2022/5/13,21:00,3,2
�n����ʂ�,3_1_2,2022/5/13,22:00,1,0
�n����ʂ�,3_1_2,2022/5/13,23:00,1,2
�n����ʂ�,3_1_2,2022/5/14,0:00,2,1
�n����ʂ�,3_1_2,2022/5/14,1:00,0,0
�n����ʂ�,3_1_2,2022/5/14,2:00,0,0
�n����ʂ�,3_1_2,2022/5/14,3:00,1,1
�n����ʂ�,3_1_2,2022/5/14,4:00,1,4
�n����ʂ�,3_1_2,2022/5/14,5:00,8,4
�n����ʂ�,3_1_2,2022/5/14,6:00,11,4
�n����ʂ�,3_1_2,2022/5/14,7:00,13,28
�n����ʂ�,3_1_2,2022/5/14,8:00,23,30
�n����ʂ�,3_1_2,2022/5/14,9:00,37,57
�n����ʂ�,3_1_2,2022/5/14,10:00,54,80
�n����ʂ�,3_1_2,2022/5/14,11:00,68,91
�n����ʂ�,3_1_2,2022/5/14,12:00,86,123
�n����ʂ�,3_1_2,2022/5/14,13:00,85,120
�n����ʂ�,3_1_2,2022/5/14,14:00,77,104
�n����ʂ�,3_1_2,2022/5/14,15:00,56,58
�n����ʂ�,3_1_2,2022/5/14,16:00,60,87
�n����ʂ�,3_1_2,2022/5/14,17:00,50,104
�n����ʂ�,3_1_2,2022/5/14,18:00,43,74
�n����ʂ�,3_1_2,2022/5/14,19:00,33,25
�n����ʂ�,3_1_2,2022/5/14,20:00,3,9
�n����ʂ�,3_1_2,2022/5/14,21:00,9,6
�n����ʂ�,3_1_2,2022/5/14,22:00,5,4
�n����ʂ�,3_1_2,2022/5/14,23:00,0,1
�n����ʂ�,3_1_2,2022/5/15,0:00,1,0
�n����ʂ�,3_1_2,2022/5/15,1:00,1,0
�n����ʂ�,3_1_2,2022/5/15,2:00,0,0
�n����ʂ�,3_1_2,2022/5/15,3:00,0,0
�n����ʂ�,3_1_2,2022/5/15,4:00,0,2
�n����ʂ�,3_1_2,2022/5/15,5:00,3,6
�n����ʂ�,3_1_2,2022/5/15,6:00,2,9
�n����ʂ�,3_1_2,2022/5/15,7:00,12,29
�n����ʂ�,3_1_2,2022/5/15,8:00,48,24
�n����ʂ�,3_1_2,2022/5/15,9:00,27,55
�n����ʂ�,3_1_2,2022/5/15,10:00,66,79
�n����ʂ�,3_1_2,2022/5/15,11:00,75,107
�n����ʂ�,3_1_2,2022/5/15,12:00,128,111
�n����ʂ�,3_1_2,2022/5/15,13:00,119,137
�n����ʂ�,3_1_2,2022/5/15,14:00,82,132
�n����ʂ�,3_1_2,2022/5/15,15:00,97,126
�n����ʂ�,3_1_2,2022/5/15,16:00,80,98
�n����ʂ�,3_1_2,2022/5/15,17:00,40,88
�n����ʂ�,3_1_2,2022/5/15,18:00,51,61
�n����ʂ�,3_1_2,2022/5/15,19:00,10,16
�n����ʂ�,3_1_2,2022/5/15,20:00,9,6
�n����ʂ�,3_1_2,2022/5/15,21:00,2,5
�n����ʂ�,3_1_2,2022/5/15,22:00,2,6
�n����ʂ�,3_1_2,2022/5/15,23:00,0,0
�n����ʂ�,3_1_2,2022/5/16,0:00,0,0
�n����ʂ�,3_1_2,2022/5/16,1:00,2,0
�n����ʂ�,3_1_2,2022/5/16,2:00,0,1
�n����ʂ�,3_1_2,2022/5/16,3:00,0,0
�n����ʂ�,3_1_2,2022/5/16,4:00,0,0
�n����ʂ�,3_1_2,2022/5/16,5:00,11,8
�n����ʂ�,3_1_2,2022/5/16,6:00,15,11
�n����ʂ�,3_1_2,2022/5/16,7:00,86,59
�n����ʂ�,3_1_2,2022/5/16,8:00,58,73
�n����ʂ�,3_1_2,2022/5/16,9:00,35,68
�n����ʂ�,3_1_2,2022/5/16,10:00,61,76
�n����ʂ�,3_1_2,2022/5/16,11:00,58,102
�n����ʂ�,3_1_2,2022/5/16,12:00,95,114
�n����ʂ�,3_1_2,2022/5/16,13:00,61,122
�n����ʂ�,3_1_2,2022/5/16,14:00,68,113
�n����ʂ�,3_1_2,2022/5/16,15:00,71,101
�n����ʂ�,3_1_2,2022/5/16,16:00,52,92
�n����ʂ�,3_1_2,2022/5/16,17:00,89,94
�n����ʂ�,3_1_2,2022/5/16,18:00,63,96
�n����ʂ�,3_1_2,2022/5/16,19:00,23,16
�n����ʂ�,3_1_2,2022/5/16,20:00,3,5
�n����ʂ�,3_1_2,2022/5/16,21:00,2,2
�n����ʂ�,3_1_2,2022/5/16,22:00,3,3
�n����ʂ�,3_1_2,2022/5/16,23:00,1,0
�n����ʂ�,3_1_2,2022/5/17,0:00,1,1
�n����ʂ�,3_1_2,2022/5/17,1:00,0,1
�n����ʂ�,3_1_2,2022/5/17,2:00,1,0
�n����ʂ�,3_1_2,2022/5/17,3:00,0,0
�n����ʂ�,3_1_2,2022/5/17,4:00,2,1
�n����ʂ�,3_1_2,2022/5/17,5:00,6,12
�n����ʂ�,3_1_2,2022/5/17,6:00,15,12
�n����ʂ�,3_1_2,2022/5/17,7:00,73,43
�n����ʂ�,3_1_2,2022/5/17,8:00,67,73
�n����ʂ�,3_1_2,2022/5/17,9:00,45,77
�n����ʂ�,3_1_2,2022/5/17,10:00,52,93
�n����ʂ�,3_1_2,2022/5/17,11:00,75,80
�n����ʂ�,3_1_2,2022/5/17,12:00,79,114
�n����ʂ�,3_1_2,2022/5/17,13:00,78,85
�n����ʂ�,3_1_2,2022/5/17,14:00,45,97
�n����ʂ�,3_1_2,2022/5/17,15:00,41,68
�n����ʂ�,3_1_2,2022/5/17,16:00,54,114
�n����ʂ�,3_1_2,2022/5/17,17:00,67,59
�n����ʂ�,3_1_2,2022/5/17,18:00,76,121
�n����ʂ�,3_1_2,2022/5/17,19:00,24,23
�n����ʂ�,3_1_2,2022/5/17,20:00,4,1
�n����ʂ�,3_1_2,2022/5/17,21:00,17,13
�n����ʂ�,3_1_2,2022/5/17,22:00,1,0
�n����ʂ�,3_1_2,2022/5/17,23:00,1,0
�n����ʂ�,3_1_2,2022/5/18,0:00,0,0
�n����ʂ�,3_1_2,2022/5/18,1:00,0,0
�n����ʂ�,3_1_2,2022/5/18,2:00,0,0
�n����ʂ�,3_1_2,2022/5/18,3:00,0,1
�n����ʂ�,3_1_2,2022/5/18,4:00,0,6
�n����ʂ�,3_1_2,2022/5/18,5:00,5,5
�n����ʂ�,3_1_2,2022/5/18,6:00,19,23
�n����ʂ�,3_1_2,2022/5/18,7:00,92,42
�n����ʂ�,3_1_2,2022/5/18,8:00,52,56
�n����ʂ�,3_1_2,2022/5/18,9:00,36,47
�n����ʂ�,3_1_2,2022/5/18,10:00,53,52
�n����ʂ�,3_1_2,2022/5/18,11:00,79,81
�n����ʂ�,3_1_2,2022/5/18,12:00,96,71
�n����ʂ�,3_1_2,2022/5/18,13:00,55,96
�n����ʂ�,3_1_2,2022/5/18,14:00,37,81
�n����ʂ�,3_1_2,2022/5/18,15:00,37,72
�n����ʂ�,3_1_2,2022/5/18,16:00,51,69
�n����ʂ�,3_1_2,2022/5/18,17:00,102,93
�n����ʂ�,3_1_2,2022/5/18,18:00,55,74
�n����ʂ�,3_1_2,2022/5/18,19:00,20,19
�n����ʂ�,3_1_2,2022/5/18,20:00,2,1
�n����ʂ�,3_1_2,2022/5/18,21:00,2,1
�n����ʂ�,3_1_2,2022/5/18,22:00,4,0
�n����ʂ�,3_1_2,2022/5/18,23:00,1,0
�n����ʂ�,3_1_2,2022/5/19,0:00,0,0
�n����ʂ�,3_1_2,2022/5/19,1:00,0,0
�n����ʂ�,3_1_2,2022/5/19,2:00,1,0
�n����ʂ�,3_1_2,2022/5/19,3:00,0,0
�n����ʂ�,3_1_2,2022/5/19,4:00,2,6
�n����ʂ�,3_1_2,2022/5/19,5:00,8,14
�n����ʂ�,3_1_2,2022/5/19,6:00,17,21
�n����ʂ�,3_1_2,2022/5/19,7:00,81,59
�n����ʂ�,3_1_2,2022/5/19,8:00,47,57
�n����ʂ�,3_1_2,2022/5/19,9:00,28,51
�n����ʂ�,3_1_2,2022/5/19,10:00,49,70
�n����ʂ�,3_1_2,2022/5/19,11:00,44,54
�n����ʂ�,3_1_2,2022/5/19,12:00,77,81
�n����ʂ�,3_1_2,2022/5/19,13:00,63,66
�n����ʂ�,3_1_2,2022/5/19,14:00,44,70
�n����ʂ�,3_1_2,2022/5/19,15:00,70,75
�n����ʂ�,3_1_2,2022/5/19,16:00,40,79
�n����ʂ�,3_1_2,2022/5/19,17:00,94,92
�n����ʂ�,3_1_2,2022/5/19,18:00,68,110
�n����ʂ�,3_1_2,2022/5/19,19:00,24,22
�n����ʂ�,3_1_2,2022/5/19,20:00,3,2
�n����ʂ�,3_1_2,2022/5/19,21:00,2,2
�n����ʂ�,3_1_2,2022/5/19,22:00,0,1
�n����ʂ�,3_1_2,2022/5/19,23:00,2,1
�n����ʂ�,3_1_2,2022/5/20,0:00,0,1
�n����ʂ�,3_1_2,2022/5/20,1:00,2,1
�n����ʂ�,3_1_2,2022/5/20,2:00,0,0
�n����ʂ�,3_1_2,2022/5/20,3:00,0,0
�n����ʂ�,3_1_2,2022/5/20,4:00,1,4
�n����ʂ�,3_1_2,2022/5/20,5:00,7,7
�n����ʂ�,3_1_2,2022/5/20,6:00,9,7
�n����ʂ�,3_1_2,2022/5/20,7:00,68,43
�n����ʂ�,3_1_2,2022/5/20,8:00,67,59
�n����ʂ�,3_1_2,2022/5/20,9:00,41,56
�n����ʂ�,3_1_2,2022/5/20,10:00,37,69
�n����ʂ�,3_1_2,2022/5/20,11:00,60,69
�n����ʂ�,3_1_2,2022/5/20,12:00,88,95
�n����ʂ�,3_1_2,2022/5/20,13:00,67,86
�n����ʂ�,3_1_2,2022/5/20,14:00,53,109
�n����ʂ�,3_1_2,2022/5/20,15:00,59,77
�n����ʂ�,3_1_2,2022/5/20,16:00,54,73
�n����ʂ�,3_1_2,2022/5/20,17:00,71,86
�n����ʂ�,3_1_2,2022/5/20,18:00,67,69
�n����ʂ�,3_1_2,2022/5/20,19:00,38,23
�n����ʂ�,3_1_2,2022/5/20,20:00,4,7
�n����ʂ�,3_1_2,2022/5/20,21:00,3,2
�n����ʂ�,3_1_2,2022/5/20,22:00,0,2
�n����ʂ�,3_1_2,2022/5/20,23:00,0,0
�n����ʂ�,3_1_2,2022/5/21,0:00,2,1
�n����ʂ�,3_1_2,2022/5/21,1:00,0,0
�n����ʂ�,3_1_2,2022/5/21,2:00,1,1
�n����ʂ�,3_1_2,2022/5/21,3:00,0,0
�n����ʂ�,3_1_2,2022/5/21,4:00,2,3
�n����ʂ�,3_1_2,2022/5/21,5:00,8,11
�n����ʂ�,3_1_2,2022/5/21,6:00,15,12
�n����ʂ�,3_1_2,2022/5/21,7:00,17,21
�n����ʂ�,3_1_2,2022/5/21,8:00,23,27
�n����ʂ�,3_1_2,2022/5/21,9:00,40,52
�n����ʂ�,3_1_2,2022/5/21,10:00,67,96
�n����ʂ�,3_1_2,2022/5/21,11:00,81,95
�n����ʂ�,3_1_2,2022/5/21,12:00,90,152
�n����ʂ�,3_1_2,2022/5/21,13:00,99,94
�n����ʂ�,3_1_2,2022/5/21,14:00,95,110
�n����ʂ�,3_1_2,2022/5/21,15:00,81,100
�n����ʂ�,3_1_2,2022/5/21,16:00,76,111
�n����ʂ�,3_1_2,2022/5/21,17:00,73,84
�n����ʂ�,3_1_2,2022/5/21,18:00,63,81
�n����ʂ�,3_1_2,2022/5/21,19:00,26,45
�n����ʂ�,3_1_2,2022/5/21,20:00,8,11
�n����ʂ�,3_1_2,2022/5/21,21:00,8,4
�n����ʂ�,3_1_2,2022/5/21,22:00,1,1
�n����ʂ�,3_1_2,2022/5/21,23:00,0,1
�n����ʂ�,3_1_2,2022/5/22,0:00,1,0
�n����ʂ�,3_1_2,2022/5/22,1:00,0,1
�n����ʂ�,3_1_2,2022/5/22,2:00,0,0
�n����ʂ�,3_1_2,2022/5/22,3:00,1,0
�n����ʂ�,3_1_2,2022/5/22,4:00,0,0
�n����ʂ�,3_1_2,2022/5/22,5:00,10,7
�n����ʂ�,3_1_2,2022/5/22,6:00,20,15
�n����ʂ�,3_1_2,2022/5/22,7:00,19,31
�n����ʂ�,3_1_2,2022/5/22,8:00,19,27
�n����ʂ�,3_1_2,2022/5/22,9:00,41,49
�n����ʂ�,3_1_2,2022/5/22,10:00,51,70
�n����ʂ�,3_1_2,2022/5/22,11:00,121,124
�n����ʂ�,3_1_2,2022/5/22,12:00,135,119
�n����ʂ�,3_1_2,2022/5/22,13:00,110,161
�n����ʂ�,3_1_2,2022/5/22,14:00,86,117
�n����ʂ�,3_1_2,2022/5/22,15:00,71,124
�n����ʂ�,3_1_2,2022/5/22,16:00,54,89
�n����ʂ�,3_1_2,2022/5/22,17:00,47,67
�n����ʂ�,3_1_2,2022/5/22,18:00,28,49
�n����ʂ�,3_1_2,2022/5/22,19:00,12,26
�n����ʂ�,3_1_2,2022/5/22,20:00,3,6
�n����ʂ�,3_1_2,2022/5/22,21:00,1,2
�n����ʂ�,3_1_2,2022/5/22,22:00,2,0
�n����ʂ�,3_1_2,2022/5/22,23:00,0,0
�n����ʂ�,3_1_2,2022/5/23,0:00,1,2
�n����ʂ�,3_1_2,2022/5/23,1:00,0,0
�n����ʂ�,3_1_2,2022/5/23,2:00,1,0
�n����ʂ�,3_1_2,2022/5/23,3:00,0,0
�n����ʂ�,3_1_2,2022/5/23,4:00,0,0
�n����ʂ�,3_1_2,2022/5/23,5:00,15,11
�n����ʂ�,3_1_2,2022/5/23,6:00,10,25
�n����ʂ�,3_1_2,2022/5/23,7:00,90,59
�n����ʂ�,3_1_2,2022/5/23,8:00,53,60
�n����ʂ�,3_1_2,2022/5/23,9:00,30,48
�n����ʂ�,3_1_2,2022/5/23,10:00,50,63
�n����ʂ�,3_1_2,2022/5/23,11:00,54,75
�n����ʂ�,3_1_2,2022/5/23,12:00,84,82
�n����ʂ�,3_1_2,2022/5/23,13:00,50,94
�n����ʂ�,3_1_2,2022/5/23,14:00,62,85
�n����ʂ�,3_1_2,2022/5/23,15:00,51,68
�n����ʂ�,3_1_2,2022/5/23,16:00,57,92
�n����ʂ�,3_1_2,2022/5/23,17:00,65,70
�n����ʂ�,3_1_2,2022/5/23,18:00,57,86
�n����ʂ�,3_1_2,2022/5/23,19:00,24,15
�n����ʂ�,3_1_2,2022/5/23,20:00,7,0
�n����ʂ�,3_1_2,2022/5/23,21:00,0,3
�n����ʂ�,3_1_2,2022/5/23,22:00,3,1
�n����ʂ�,3_1_2,2022/5/23,23:00,1,1
�n����ʂ�,3_1_2,2022/5/24,0:00,0,0
�n����ʂ�,3_1_2,2022/5/24,1:00,0,0
�n����ʂ�,3_1_2,2022/5/24,2:00,0,0
�n����ʂ�,3_1_2,2022/5/24,3:00,0,0
�n����ʂ�,3_1_2,2022/5/24,4:00,1,1
�n����ʂ�,3_1_2,2022/5/24,5:00,11,14
�n����ʂ�,3_1_2,2022/5/24,6:00,12,24
�n����ʂ�,3_1_2,2022/5/24,7:00,71,43
�n����ʂ�,3_1_2,2022/5/24,8:00,51,56
�n����ʂ�,3_1_2,2022/5/24,9:00,30,44
�n����ʂ�,3_1_2,2022/5/24,10:00,45,49
�n����ʂ�,3_1_2,2022/5/24,11:00,56,65
�n����ʂ�,3_1_2,2022/5/24,12:00,78,86
�n����ʂ�,3_1_2,2022/5/24,13:00,36,63
�n����ʂ�,3_1_2,2022/5/24,14:00,45,58
�n����ʂ�,3_1_2,2022/5/24,15:00,40,40
�n����ʂ�,3_1_2,2022/5/24,16:00,26,59
�n����ʂ�,3_1_2,2022/5/24,17:00,71,52
�n����ʂ�,3_1_2,2022/5/24,18:00,76,129
�n����ʂ�,3_1_2,2022/5/24,19:00,55,33
�n����ʂ�,3_1_2,2022/5/24,20:00,6,7
�n����ʂ�,3_1_2,2022/5/24,21:00,4,2
�n����ʂ�,3_1_2,2022/5/24,22:00,2,1
�n����ʂ�,3_1_2,2022/5/24,23:00,0,0
�n����ʂ�,3_1_2,2022/5/25,0:00,1,0
�n����ʂ�,3_1_2,2022/5/25,1:00,0,0
�n����ʂ�,3_1_2,2022/5/25,2:00,1,0
�n����ʂ�,3_1_2,2022/5/25,3:00,0,0
�n����ʂ�,3_1_2,2022/5/25,4:00,0,0
�n����ʂ�,3_1_2,2022/5/25,5:00,10,13
�n����ʂ�,3_1_2,2022/5/25,6:00,12,16
�n����ʂ�,3_1_2,2022/5/25,7:00,82,54
�n����ʂ�,3_1_2,2022/5/25,8:00,58,51
�n����ʂ�,3_1_2,2022/5/25,9:00,37,58
�n����ʂ�,3_1_2,2022/5/25,10:00,56,67
�n����ʂ�,3_1_2,2022/5/25,11:00,71,85
�n����ʂ�,3_1_2,2022/5/25,12:00,87,97
�n����ʂ�,3_1_2,2022/5/25,13:00,66,61
�n����ʂ�,3_1_2,2022/5/25,14:00,38,62
�n����ʂ�,3_1_2,2022/5/25,15:00,53,103
�n����ʂ�,3_1_2,2022/5/25,16:00,48,88
�n����ʂ�,3_1_2,2022/5/25,17:00,78,90
�n����ʂ�,3_1_2,2022/5/25,18:00,77,87
�n����ʂ�,3_1_2,2022/5/25,19:00,29,40
�n����ʂ�,3_1_2,2022/5/25,20:00,8,10
�n����ʂ�,3_1_2,2022/5/25,21:00,1,0
�n����ʂ�,3_1_2,2022/5/25,22:00,1,2
�n����ʂ�,3_1_2,2022/5/25,23:00,3,2
�n����ʂ�,3_1_2,2022/5/26,0:00,0,0
�n����ʂ�,3_1_2,2022/5/26,1:00,1,0
�n����ʂ�,3_1_2,2022/5/26,2:00,1,2
�n����ʂ�,3_1_2,2022/5/26,3:00,1,0
�n����ʂ�,3_1_2,2022/5/26,4:00,0,1
�n����ʂ�,3_1_2,2022/5/26,5:00,13,10
�n����ʂ�,3_1_2,2022/5/26,6:00,17,13
�n����ʂ�,3_1_2,2022/5/26,7:00,55,51
�n����ʂ�,3_1_2,2022/5/26,8:00,53,46
�n����ʂ�,3_1_2,2022/5/26,9:00,41,72
�n����ʂ�,3_1_2,2022/5/26,10:00,53,61
�n����ʂ�,3_1_2,2022/5/26,11:00,52,62
�n����ʂ�,3_1_2,2022/5/26,12:00,71,63
�n����ʂ�,3_1_2,2022/5/26,13:00,60,65
�n����ʂ�,3_1_2,2022/5/26,14:00,39,77
�n����ʂ�,3_1_2,2022/5/26,15:00,50,65
�n����ʂ�,3_1_2,2022/5/26,16:00,38,45
�n����ʂ�,3_1_2,2022/5/26,17:00,70,67
�n����ʂ�,3_1_2,2022/5/26,18:00,47,60
�n����ʂ�,3_1_2,2022/5/26,19:00,25,17
�n����ʂ�,3_1_2,2022/5/26,20:00,5,0
�n����ʂ�,3_1_2,2022/5/26,21:00,3,4
�n����ʂ�,3_1_2,2022/5/26,22:00,3,2
�n����ʂ�,3_1_2,2022/5/26,23:00,2,0
�n����ʂ�,3_1_2,2022/5/27,0:00,0,0
�n����ʂ�,3_1_2,2022/5/27,1:00,1,0
�n����ʂ�,3_1_2,2022/5/27,2:00,0,0
�n����ʂ�,3_1_2,2022/5/27,3:00,0,2
�n����ʂ�,3_1_2,2022/5/27,4:00,1,2
�n����ʂ�,3_1_2,2022/5/27,5:00,14,7
�n����ʂ�,3_1_2,2022/5/27,6:00,9,8
�n����ʂ�,3_1_2,2022/5/27,7:00,78,49
�n����ʂ�,3_1_2,2022/5/27,8:00,50,68
�n����ʂ�,3_1_2,2022/5/27,9:00,45,60
�n����ʂ�,3_1_2,2022/5/27,10:00,40,84
�n����ʂ�,3_1_2,2022/5/27,11:00,91,81
�n����ʂ�,3_1_2,2022/5/27,12:00,79,79
�n����ʂ�,3_1_2,2022/5/27,13:00,68,63
�n����ʂ�,3_1_2,2022/5/27,14:00,52,80
�n����ʂ�,3_1_2,2022/5/27,15:00,44,66
�n����ʂ�,3_1_2,2022/5/27,16:00,36,79
�n����ʂ�,3_1_2,2022/5/27,17:00,97,53
�n����ʂ�,3_1_2,2022/5/27,18:00,46,134
�n����ʂ�,3_1_2,2022/5/27,19:00,44,42
�n����ʂ�,3_1_2,2022/5/27,20:00,21,26
�n����ʂ�,3_1_2,2022/5/27,21:00,3,14
�n����ʂ�,3_1_2,2022/5/27,22:00,3,2
�n����ʂ�,3_1_2,2022/5/27,23:00,2,1
�n����ʂ�,3_1_2,2022/5/28,0:00,0,3
�n����ʂ�,3_1_2,2022/5/28,1:00,2,0
�n����ʂ�,3_1_2,2022/5/28,2:00,0,0
�n����ʂ�,3_1_2,2022/5/28,3:00,3,0
�n����ʂ�,3_1_2,2022/5/28,4:00,1,3